Location: Newark
(39.0622°N, 106.5590°E)
Time: 01:22:43
(UTC+00:00)

UWE-3 - Pass Details

Date: 21 February 2020
Orbit: 585 x 683 km, 97.6° (Epoch: 06 April)

Event Time Altitude Azimuth Distance (km) Brightness Sun altitude
Rises 23:03:18 0° 2° (N) 3,034 ? -7.4°
Reaches altitude 10° 23:05:41 10° 353° (N) 2,124 ? -6.9°
Maximum altitude 23:09:52 34° 289° (WNW) 1,125 ? -6.1°
Drops below altitude 10° 23:14:03 10° 225° (SW) 2,121 ? -5.3°
Sets 23:16:26 0° 216° (SW) 3,029 ? -4.8°
